Keahole Point, HI

12:03 AM HST on February 25, 2018 (GMT -1000)
Kona International At Keahole

Weather History for PHKO - January, 2014

Change the Weather History Date:

Thursday, January 23, 2014

  Actual Average Record
Temperature  
Mean Temperature 70 °F -  
Max Temperature 79 °F 79 °F 90 °F (1984)
Min Temperature 61 °F 66 °F 61 °F (2014)
Cooling Degree Days 5    
Growing Degree Days 20 (Base 50)    
Moisture  
Dew Point 55 °F    
Average Humidity 56    
Maximum Humidity 68    
Minimum Humidity 37    
Precipitation  
Precipitation 0.00 in - - ()
Sea Level Pressure  
Sea Level Pressure 29.88 in    
Wind  
Wind Speed 12 mph (East)    
Max Wind Speed 20 mph    
Max Gust Speed 21 mph    
Visibility 10 miles    
Events      
Averages and records for this station are not official NWS values.
T = Trace of Precipitation, MM = Missing Value Source: NWS Daily Summary

Daily Weather History Graph

Daily Weather History Graph

Search for Another Location

Airport or City:

Trip Planner

Search our weather history database for the weather conditions in past years. The results will help you decide how hot, cold, wet, or windy it might be!

Date:

Astronomy

Jan. 23, 2014 Rise Set
Actual Time 7:01 AM HST 6:11 PM HST
Civil Twilight 6:37 AM HST 6:34 PM HST
Nautical Twilight 6:11 AM HST 7:01 PM HST
Astronomical Twilight 5:44 AM HST 7:27 PM HST
Moon No Moon Rise 11:45 AM HST (1/23)
Length of Visible Light 11h 56m
Length of Day
11h 09m
Waning Gibbous, 53% of the Moon is Illuminated
Jan 23
Waning Gibbous
Jan 23
Last Quarter
Jan 30
New
Feb 6
First Quarter
Feb 14
Full

Hourly Weather History & Observations

Time (HST) Temp. Dew Point Humidity Pressure Visibility Wind Dir Wind Speed Gust Speed Precip Events Conditions
12:53 AM 66.9 °F 51.1 °F 57% 29.87 in 10.0 mi North 19.6 mph - N/A   Clear
1:53 AM 64.0 °F 52.0 °F 65% 29.87 in 10.0 mi North 16.1 mph - N/A   Clear
2:53 AM 64.9 °F 51.1 °F 61% 29.84 in 10.0 mi North 11.5 mph - N/A   Clear
3:53 AM 68.0 °F 44.1 °F 42% 29.83 in 10.0 mi NNE 10.4 mph - N/A   Clear
4:53 AM 66.0 °F 46.9 °F 50% 29.83 in 10.0 mi NE 11.5 mph 20.7 mph N/A   Clear
5:53 AM 62.1 °F 50.0 °F 65% 29.86 in 10.0 mi NNE 13.8 mph - N/A   Clear
6:53 AM 61.0 °F 50.0 °F 67% 29.89 in 10.0 mi NNE 10.4 mph - N/A   Clear
7:53 AM 62.1 °F 51.1 °F 67% 29.91 in 10.0 mi NE 6.9 mph - N/A   Clear
8:53 AM 73.0 °F 48.0 °F 41% 29.91 in 10.0 mi Calm Calm - N/A   Clear
9:53 AM 77.0 °F 48.9 °F 37% 29.94 in 10.0 mi NNE 10.4 mph - N/A   Clear
10:53 AM 79.0 °F 55.0 °F 44% 29.92 in 10.0 mi North 8.1 mph - N/A   Mostly Cloudy
11:53 AM 78.1 °F 55.9 °F 46% 29.91 in 10.0 mi NW 8.1 mph - N/A   Overcast
12:53 PM 79.0 °F 59.0 °F 50% 29.87 in 10.0 mi SW 6.9 mph - N/A   Overcast
1:53 PM 78.1 °F 59.0 °F 52% 29.85 in 10.0 mi WSW 8.1 mph - N/A   Clear
2:53 PM 79.0 °F 60.1 °F 52% 29.81 in 10.0 mi South 16.1 mph - N/A   Overcast
3:53 PM 79.0 °F 60.1 °F 52% 29.82 in 10.0 mi South 18.4 mph - N/A   Clear
4:53 PM 78.1 °F 61.0 °F 56% 29.84 in 10.0 mi South 16.1 mph - N/A   Overcast
5:53 PM 75.9 °F 61.0 °F 60% 29.88 in 10.0 mi South 10.4 mph - N/A   Partly Cloudy
6:53 PM 75.9 °F 61.0 °F 60% 29.90 in 10.0 mi South 11.5 mph - N/A   Overcast
7:53 PM 75.0 °F 61.0 °F 62% 29.91 in 10.0 mi SSW 13.8 mph - N/A   Overcast
8:53 PM 73.9 °F 61.0 °F 64% 29.93 in 10.0 mi South 10.4 mph - N/A   Overcast
9:53 PM 73.0 °F 61.0 °F 66% 29.94 in 10.0 mi SE 3.5 mph - N/A   Overcast
10:53 PM 72.0 °F 61.0 °F 68% 29.94 in 10.0 mi SE 5.8 mph - N/A   Overcast
11:53 PM 71.1 °F 60.1 °F 68% 29.94 in 10.0 mi East 4.6 mph - N/A   Overcast